Location: Allaines
(49.9632°N, 2.9458°E)
Time: 09:59:32
(UTC+00:00)

Cosmos 1076 Rocket - Pass Details

Date: 09 April 2020
Orbit: 590 x 612 km, 82.5° (Epoch: 25 May)

Event Time Altitude Azimuth Distance (km) Brightness Sun altitude
Rises 19:37:41 0° 357° (N) 2,850 7.4 -10.6°
Reaches altitude 10° 19:40:07 10° 9° (N) 1,946 6.3 -10.9°
Maximum altitude 19:43:55 29° 71° (ENE) 1,103 4.5 -11.4°
Enters shadow 19:46:22 17° 120° (ESE) 1,520 4.9 -11.8°
